Regional Weather Roundup
Issued by NWS

Home | Current Version | Previous Version | Graphics & Text | Print | Product List | Glossary On
Versions: 1 2 3 4 5 6 7 8 9 10 11 12 13 14 15 16 17 18 19 20 21 22 23 24 25 26 27 28 29 30 31 32 33 34 35 36 37 38 39 40 41 42 43 44 45 46 47 48 49 50
000
ASUS45 KCYS 211710
RWRWY

WYOMING REGIONAL WEATHER ROUNDUP
NATIONAL WEATHER SERVICE CHEYENNE WY
1100 AM MDT THU MAY 21 2015

NOTE:  "FAIR" INDICATES FEW OR NO CLOUDS BELOW 12,000 FEET
WITH NO SIGNIFICANT WEATHER AND/OR OBSTRUCTIONS TO VISIBILITY.

WYZ001-211800-
YELLOWSTONE NATIONAL PARK

CITY           SKY/WX    TMP DP  RH WIND       PRES   REMARKS
LK YELLOWSTONE   N/A     45  34  65 VRB5      30.16F
W YELLOWSTONE  NOT AVBL

$$
WYZ002>013-054>058-071-098>099-211800-
NORTHERN WYOMING

CITY           SKY/WX    TMP DP  RH WIND       PRES   REMARKS
JACKSON        SUNNY     54  36  50 CALM      30.10F
CODY           FAIR      52  41  66 CALM      30.10S
GREYBULL       FAIR      57  36  45 S8        30.10F
WORLAND        FAIR      56  38  50 SE7       30.09F
SHERIDAN       FAIR      56  39  53 E10       30.12F
BUFFALO          N/A     54  38  54 SE17      30.13F
GILLETTE       FAIR      50  37  61 SE18      30.18S
HULETT         FAIR      54  32  43 SW3       30.20F
NEWCASTLE      FAIR      50  34  53 SE8       30.22F

$$
WYZ014>020-022>026-101>103-211800-
CENTRAL WYOMING

CITY           SKY/WX    TMP DP  RH WIND       PRES   REMARKS
BIG PINEY      CLOUDY    47  36  65 VRB3      30.15F
PINEDALE       FAIR      48  36  61 S3        30.15S
DUBOIS         FAIR      48  32  53 SE6       30.12F
LANDER         FAIR      50  39  66 VRB5      30.11F
RIVERTON       FAIR      49  37  63 VRB3      30.14F
CASPER         FAIR      51  39  63 S7        30.14F
DOUGLAS        CLOUDY    49  39  68 SE17      30.18R

$$
WYZ021-027>030-104>119-211800-
SOUTHERN WYOMING

CITY           SKY/WX    TMP DP  RH WIND       PRES   REMARKS
EVANSTON       FAIR      48  40  73 NE15      30.10F
KEMMERER       CLOUDY    46  39  76 NE12      30.15S
FORT BRIDGER   CLOUDY    43  43 100 E6        30.16S
ROCK SPRINGS   FAIR      49  41  74 NE6       30.13F
DIXON          FAIR      58  39  49 CALM      30.13F
RAWLINS        FAIR      50  40  68 E8        30.15F
SARATOGA       FAIR      52  41  66 CALM      30.15F
LARAMIE        FAIR      54  37  52 E5        30.15F
CHEYENNE       CLOUDY    40  37  89 S12       30.20F WCI  33
TORRINGTON     CLOUDY    50  41  71 SE12      30.20F
PINE BLUFFS    CLOUDY    46  39  76 S13       30.22F

$$



USA.gov is the U.S. government's official web portal to all federal, state and local government web resources and services.